Location: *
(11.0000°N, 12.3833°W)
Time: 02:52:31
(UTC+00:00)

Daily predictions for brighter satellites

Satellite Brightness Start Highest point End
(mag) Time Altitude Azimuth Time Altitude Azimuth Time Altitude Azimuth
CZ-3 Stage 3 4.0 03:08:06 54° ENE 03:08:06 54° ENE 03:26:31 10° ENE
Milstar 3 Cent rocket 4.2 03:41:01 20° NNE 03:41:01 20° NNE 03:43:27 10° NE
Mugunghwa Rocket 4.3 04:10:15 69° NNW 04:11:00 76° NNE 04:17:54 10° ESE
SJ 16-02 3.5 04:17:05 20° N 04:17:05 20° N 04:18:29 10° N
Atlas Centaur 2 3.6 04:17:52 31° NNW 04:18:02 31° NNW 04:23:13 10° NE
IDEFIX/ARIANE 42P 2.8 04:16:59 10° NNE 04:21:45 64° ENE 04:21:45 64° ENE
GPS 2-15 Rocket1 4.3 04:30:42 35° ESE 04:30:42 35° ESE 04:34:04 10° E
Cosmos 2341 Rocket 3.9 04:25:16 10° N 04:31:38 80° W 04:32:27 68° SSW
Palapa 6 Rocket 3.8 04:32:42 72° W 04:33:28 86° NNW 04:39:30 10° ENE
Ariane 42L Rocket 3.5 04:33:13 62° S 04:33:35 63° S 04:50:52 10° E
NOSS 3-2 (C) 4.1 04:27:39 10° NNW 04:36:02 88° ENE 04:44:37 10° SSE
Cosmos 1833 Rocket 2.7 04:37:42 64° S 04:38:34 79° ESE 04:44:12 10° NNE
GPS 2-14 Rocket1 4.1 04:44:35 29° N 04:44:35 29° N 04:47:35 10° NE
Cosmos 1680 Rocket 4.0 04:40:28 10° N 04:45:39 57° ENE 04:50:46 10° SSE
SWIFT 2.9 04:46:17 49° N 04:46:30 50° NNE 04:50:35 10° E
Cosmos 2218 Rocket 4.1 04:41:53 10° N 04:48:05 76° E 04:54:23 10° S
Cosmos 1707 4.0 04:45:18 10° NNE 04:48:54 39° E 04:51:09 19° SE
CZ-3A R/B 3.9 04:52:17 12° N 04:53:15 14° NNE 04:55:01 10° ENE
Meteor 1-21 4.5 04:50:55 10° NNW 04:56:19 46° W 04:56:19 46° W
ARIANE 5 R/B 3.3 04:59:46 31° S 05:00:33 34° SSE 05:11:31 10° E
Cosmos 1125 Rocket 4.0 04:57:36 22° S 05:00:54 59° ESE 05:06:00 10° NNE
BREEZE-M DEB (TANK) 4.2 05:02:37 19° N 05:02:37 19° N 05:04:01 10° NNE
SJ-6F 4.2 04:58:18 10° N 05:02:22 82° W 05:03:03 60° SSW
CZ-3B R/B 3.8 04:59:10 32° SW 05:02:59 39° SSW 05:22:12 10° SE
Cosmos 2082 Rocket 2.1 05:01:21 35° SSW 05:03:49 86° WNW 05:09:26 10° NNE
Cosmos 372 Rocket 3.9 05:05:10 45° SW 05:06:27 60° WNW 05:11:28 10° N
Okean O Rocket 4.0 05:05:49 10° NE 05:09:05 21° E 05:12:22 10° SSE
PSLV R/B 4.0 05:11:59 49° WSW 05:12:17 50° WSW 05:16:13 10° NNW
SL-08 R/B 4.5 05:07:18 10° N 05:13:27 84° E 05:19:43 10° S
Nadezhda 3 Rocket 4.0 05:09:40 16° SSW 05:14:47 72° W 05:21:07 10° N
CZ-4B R/B 2.6 05:12:20 10° N 05:15:51 58° WNW 05:16:26 49° WSW
Delta 2 Rocket 4.1 05:17:31 27° W 05:20:44 58° NNW 05:26:53 10° NE
CZ-2C R/B 2.2 05:16:05 10° N 05:20:49 67° WNW 05:23:52 21° SSW
Ariane H10 4.4 05:21:16 28° SW 05:23:46 55° S 05:47:17 10° E
Okean 1-7 Rocket 3.5 05:20:35 10° N 05:25:04 75° W 05:29:32 10° S
Meteor PRIRODA 3.5 05:23:35 10° N 05:27:15 75° WNW 05:29:45 19° SSW
Meteor 1-31 Rocket 3.2 05:25:56 10° N 05:29:30 40° WNW 05:30:59 27° SW
CENTAUR R/B 3.2 05:22:49 10° NW 05:31:16 59° WSW 05:39:30 10° S
ATLAS 3B R/B 3.0 05:25:39 10° NW 05:31:57 41° WSW 05:38:27 10° S
Spelda 2.9 05:31:31 26° SSW 05:32:00 27° S 05:34:20 10° ESE
CZ-3B R/B 4.3 05:28:18 10° NW 05:33:37 59° NNE 05:55:45 10° ESE
SL-16 Debris 3.1 05:34:11 33° W 05:34:58 53° NNW 05:38:24 10° NE
Cosmos 2112 Rocket 4.3 05:31:25 10° NNW 05:36:23 43° W 05:41:18 10° S
ATLAS 2AS CENTAUR RB 1.8 05:36:28 24° SW 05:37:05 27° SSW 05:38:59 10° SE
Aureole 2 Rocket 1.7 05:38:42 10° NNW 05:41:39 74° WSW 05:44:25 10° S
Star 37E S/N 40062 4.0 05:40:24 18° SSW 05:42:01 31° SSE 05:43:49 10° E
Cosmos 1758 4.4 05:39:51 10° SSE 05:43:39 45° E 05:47:25 10° NNE
Cosmos 405 Rocket 3.2 05:42:35 13° SSW 05:45:55 43° W 05:49:44 10° NNW
MOS 1-B 4.5 05:40:38 10° N 05:46:15 56° WNW 05:51:53 10° SSW
Cosmos 1805 4.1 05:45:08 16° SW 05:47:30 29° W 05:50:54 10° NNW
Cosmos 1470 3.5 05:49:51 10° S 05:53:45 57° E 05:57:38 10° NNE
BREEZE-M DEB (TANK) 4.4 05:53:17 10° WNW 05:58:20 21° WSW 06:00:51 10° SSW
BREEZE-M DEB (TANK) 4.5 05:55:55 10° NNW 05:59:12 51° NE 06:07:18 10° SE
Meteor 1-24 Rocket 4.3 05:54:28 10° N 05:59:45 59° E 06:04:58 10° SSE
Palapa B4 Rocket 4.0 05:52:38 12° WSW 06:00:19 82° NNW 06:05:20 10° ENE
PAYLOAD B 4.3 05:55:38 10° N 06:01:00 58° WNW 06:06:24 10° SSW
Delta 202 4.3 05:56:50 11° SW 06:01:46 49° SSE 06:07:57 10° E
Helios 1A Rocket 3.9 05:58:46 10° NNW 06:02:16 28° WNW 06:05:47 10° SW
CZ-3A R/B 3.7 06:03:23 10° NNW 06:05:36 16° NNE 06:09:52 10° ENE
Cosmos 389 Rocket 3.9 06:03:41 10° N 06:07:08 44° E 06:10:36 10° SSE
Ariane H10+ 4.1 06:05:13 10° SSW 06:08:39 16° SSE 06:14:43 10° ESE
OAO 2 Rocket 3.7 06:05:55 10° SW 06:10:56 61° SE 06:16:04 10° ENE
USA 215 3.4 06:05:13 10° SSE 06:11:28 50° SW 06:17:45 10° NW
Cosmos 1726 Rocket 4.3 06:07:14 10° S 06:11:31 57° E 06:15:45 10° NNE
GPS 2-15 Rocket1 3.4 06:08:53 10° W 06:13:42 68° NNW 06:18:36 10° ENE
Chandra Rocket (1) 4.1 06:01:06 10° WNW 06:24:56 76° SSW 06:30:34 10° SE
